time_stamp(utc),avg(mph),gust(mph),direction(deg),12m_air_temp(f),sonic_u(cm/s),sonic_v(cm/s),sonic_w(cm/s),pressure,2m_air_temp(f),pyranometer(W/m^2)
"2019-05-20 00:01:03+00",21.2,26.2,,64.7,-429,-818,-16,1013.68,64.7,0
"2019-05-20 00:06:03+00",22.1,24.1,,64.6,-497,-831,-14,1013.77,64.6,0
"2019-05-20 00:11:03+00",23.8,26.8,,64.8,-1017,-87,-439,1013.72,64.6,0
"2019-05-20 00:16:03+00",19.3,22.3,,64.8,-470,-687,-30,1013.82,64.7,0
"2019-05-20 00:21:03+00",20.8,27.8,,64.9,-736,-411,-199,1013.79,64.8,0
"2019-05-20 00:26:03+00",20.1,22.1,,64.8,-511,-705,-38,1013.71,64.8,0
"2019-05-20 00:31:03+00",19.6,23.6,,64.7,-518,-606,-80,1013.56,64.6,0
"2019-05-20 00:36:03+00",19.3,24.3,,64.8,-428,-728,6,1013.53,64.7,0
"2019-05-20 00:41:03+00",18.2,22.2,,64.7,495,-2117,795,1013.37,64.6,0
"2019-05-20 01:16:03+00",23.6,26.6,,64.1,-188,-1334,231,1013.34,63.9,0
"2019-05-20 01:21:03+00",22.1,26.1,,63.9,-473,-824,-8,1013.52,63.8,0
"2019-05-20 01:26:03+00",20.4,25.4,,63.9,-395,-775,-9,1013.5,63.7,0
"2019-05-20 01:31:03+00",22.8,25.8,,63.9,-466,-850,17,1013.56,63.7,0
"2019-05-20 01:36:03+00",22.1,26.1,,63.9,-453,-818,9,1013.62,63.6,0
"2019-05-20 01:41:03+00",20.1,24.1,,63.9,-464,-733,23,1013.72,63.7,0
"2019-05-20 01:46:03+00",19.8,23.8,,64,-438,-713,48,1013.78,63.7,0
"2019-05-20 01:51:03+00",22.1,24.1,,64.1,-529,-796,27,1013.89,63.8,0
"2019-05-20 01:56:03+00",25.4,27.4,,64.2,0,143,638,1013.92,63.9,0
"2019-05-20 02:01:03+00",23.9,26.9,,64.1,-309,-400,324,1013.96,63.9,0
"2019-05-20 02:06:03+00",26.1,29.1,,64.4,-224,-329,401,1013.79,64,0
"2019-05-20 02:11:03+00",24.2,28.2,,64.2,-572,-890,33,1013.72,63.9,0
"2019-05-20 02:16:03+00",25.9,27.9,,64.1,-533,-962,10,1013.68,63.7,0
"2019-05-20 02:21:03+00",24.0,29.0,,63.9,-477,-910,14,1013.68,63.6,0
"2019-05-20 02:26:03+00",25.8,28.8,,63.8,-502,-962,9,1013.64,63.5,0
"2019-05-20 02:31:03+00",25.7,31.7,,63.5,-543,-954,11,1013.74,63.2,0
"2019-05-20 02:36:03+00",23.6,27.6,,63.2,-492,-873,7,1013.69,63,0
"2019-05-20 02:41:03+00",21.8,23.8,,63.1,-479,-797,12,1013.78,62.9,0
"2019-05-20 02:46:03+00",22.5,26.5,,63.1,-486,-833,4,1013.8,62.8,0
"2019-05-20 02:51:03+00",21.2,23.2,,63.2,-519,-767,20,1013.85,62.9,0
"2019-05-20 02:56:03+00",22.0,25.0,,63.6,-549,-778,23,1013.94,63.1,0
"2019-05-20 03:01:03+00",22.6,26.6,,63.9,-544,-896,-25,1013.63,63.2,0
"2019-05-20 03:06:03+00",21.6,24.6,,64.1,-423,-804,24,1013.54,63.3,0
"2019-05-20 03:11:03+00",21.4,23.4,,64.1,-424,-828,-12,1013.53,63.5,0
"2019-05-20 03:16:03+00",21.9,24.9,,64.2,-439,-827,7,1013.47,63.6,0
"2019-05-20 03:21:03+00",22.5,26.5,,64.1,-428,-848,-12,1013.44,63.6,0
"2019-05-20 03:26:03+00",21.3,26.3,,64,-370,-826,8,1013.27,63.5,0
"2019-05-20 03:31:03+00",20.2,23.2,,63.8,-354,-784,7,1013.26,63.4,0
"2019-05-20 03:36:03+00",18.2,23.2,,63.8,-409,-685,15,1013.42,63.4,0
"2019-05-20 03:41:03+00",18.5,21.5,,63.7,-360,-761,51,1013.39,63.3,0
"2019-05-20 03:46:03+00",19.3,22.3,,64.1,16407,0,235,1013.3,63.5,-0.1
"2019-05-20 03:51:03+00",20.5,25.5,,64.2,-361,-803,6,1013.22,63.6,0
"2019-05-20 03:56:03+00",20.0,24.0,,64.5,-363,-784,7,1013.06,63.9,0
"2019-05-20 04:01:03+00",19.4,23.4,,64.5,-394,-743,0,1013.27,64,0
"2019-05-20 04:06:03+00",21.1,24.1,,64.8,-477,-796,-2,1013.16,64.1,0
"2019-05-20 04:11:03+00",20.6,23.6,,64.7,-455,-777,-12,1013.1,64.1,0
"2019-05-20 04:16:03+00",18.0,22.0,,64.7,-411,-691,27,1012.97,64.1,0
"2019-05-20 04:21:03+00",20.4,24.4,,64.6,-437,-792,7,1012.89,64.1,0
"2019-05-20 04:26:03+00",19.8,22.8,,64.6,-411,-769,0,1012.87,64,0
"2019-05-20 04:31:03+00",19.6,23.6,,64.8,-376,-767,9,1012.79,64.1,0
"2019-05-20 04:36:03+00",21.1,24.1,,64.9,-459,-802,2,1012.85,64.3,0
"2019-05-20 04:41:03+00",20.4,22.4,,64.9,-462,-776,4,1012.75,64.3,0
"2019-05-20 04:46:03+00",22.2,26.2,,64.9,-405,-868,-13,1012.64,64.3,0
"2019-05-20 04:51:03+00",19.5,23.5,,64.9,-415,-752,8,1012.69,64.3,0
"2019-05-20 04:56:03+00",19.3,21.3,,64.9,-427,-728,-1,1012.79,64.2,0
"2019-05-20 05:01:03+00",19.6,21.6,,65,-441,-746,-3,1012.81,64.3,0
"2019-05-20 05:06:03+00",15.3,17.3,,64.9,-396,-572,14,1012.87,64.3,0
"2019-05-20 05:11:03+00",17.2,20.2,,65.3,-425,-645,7,1012.84,64.4,0
"2019-05-20 05:16:03+00",15.9,18.9,,65.4,-358,-604,-1,1012.81,64.6,0
"2019-05-20 05:21:03+00",14.4,16.4,,65.4,-363,-537,4,1012.8,64.6,0
"2019-05-20 05:26:03+00",19.4,22.4,,66,-554,-692,14,1012.73,64.9,0
"2019-05-20 05:31:03+00",19.8,23.8,,66.2,-589,-691,26,1012.75,65.3,0
"2019-05-20 05:36:03+00",19.9,23.9,,66.2,-620,-664,21,1012.7,65.3,0
"2019-05-20 05:41:03+00",21.3,25.3,,66.2,-627,-742,15,1012.69,65.4,0
"2019-05-20 05:46:03+00",20.4,24.4,,65.9,-600,-714,28,1012.69,65.3,0
"2019-05-20 05:51:03+00",19.1,21.1,,65.7,-595,-635,16,1012.69,65.2,0
"2019-05-20 05:56:03+00",18.5,20.5,,65.5,-566,-622,14,1012.7,64.9,0
"2019-05-20 06:01:03+00",16.8,19.8,,65.1,-520,-554,4,1012.71,64.7,0
"2019-05-20 06:06:03+00",17.1,20.1,,65,-510,-582,-4,1012.58,64.5,0
"2019-05-20 06:11:03+00",16.7,18.7,,64.9,-477,-589,-1,1012.63,64.4,0
"2019-05-20 06:16:03+00",15.0,17.0,,64.8,-458,-517,13,1012.54,64.3,0
"2019-05-20 06:21:03+00",14.9,17.9,,64.6,-423,-532,6,1012.56,64.1,0
"2019-05-20 06:26:03+00",16.6,18.6,,64.5,-457,-596,-9,1012.46,64,0
"2019-05-20 06:31:03+00",14.0,16.0,,64.4,-389,-501,3,1012.42,63.9,0
"2019-05-20 06:36:03+00",14.3,16.3,,64.4,-397,-516,3,1012.38,63.8,0
"2019-05-20 06:41:03+00",14.3,16.3,,64.4,-399,-512,9,1012.37,63.8,0
"2019-05-20 06:46:03+00",14.7,16.7,,64.5,-422,-527,4,1012.36,63.8,0
"2019-05-20 06:51:03+00",15.2,18.2,,64.5,-449,-525,15,1012.24,63.9,0
"2019-05-20 06:56:03+00",14.2,16.2,,64.4,-407,-505,11,1012.23,63.9,0
"2019-05-20 07:01:03+00",14.5,17.5,,64.3,-401,-521,9,1012.21,63.8,0
"2019-05-20 07:06:03+00",14.6,16.6,,64.3,-428,-508,1,1012.22,63.8,0
"2019-05-20 07:11:03+00",15.0,17.0,,64.2,-412,-546,2,1012.2,63.8,0
"2019-05-20 07:16:03+00",14.7,16.7,,64.3,-409,-527,-2,1012.18,63.7,0
"2019-05-20 07:21:03+00",15.0,18.0,,64.2,-399,-546,1,1012.1,63.7,0
"2019-05-20 07:26:03+00",13.1,16.1,,64.2,-351,-488,27,1012.01,63.7,0
"2019-05-20 07:31:03+00",14.6,17.6,,64.3,-344,-551,-9,1011.94,63.7,0
"2019-05-20 07:36:03+00",14.9,17.9,,64.3,-347,-561,-6,1011.92,63.7,0
"2019-05-20 07:41:03+00",14.6,16.6,,64.2,-332,-557,8,1011.86,63.7,0
"2019-05-20 07:46:03+00",13.2,16.2,,64.1,-319,-499,5,1011.84,63.6,0
"2019-05-20 07:51:03+00",12.5,13.5,,63.9,-298,-472,5,1011.8,63.5,0
"2019-05-20 07:56:03+00",12.1,14.1,,63.9,-261,-463,7,1011.72,63.4,0
"2019-05-20 08:01:03+00",11.8,13.8,,64.1,-226,-461,-3,1011.69,63.4,0
"2019-05-20 08:06:03+00",7.7,9.7,,64,-86,-320,0,1011.6,63.4,0
"2019-05-20 08:11:03+00",10.8,12.8,,63.7,-162,-429,-4,1011.51,63.2,0
"2019-05-20 08:16:03+00",12.1,14.1,,63.8,-190,-485,-4,1011.48,63.2,0
"2019-05-20 08:21:03+00",13.4,14.4,,63.8,-213,-536,-12,1011.45,63.2,0
"2019-05-20 08:26:03+00",12.2,15.2,,63.7,-197,-488,-7,1011.41,63.2,0
"2019-05-20 08:31:03+00",13.1,15.1,,63.7,-186,-545,-7,1011.29,63.2,0
"2019-05-20 08:36:03+00",13.1,17.1,,63.7,-197,-527,-4,1011.13,63.2,0
"2019-05-20 08:41:03+00",11.6,15.6,,63.7,-146,-471,8,1011,63.2,0
"2019-05-20 08:46:03+00",12.1,15.1,,63.7,-191,-490,-7,1011.03,63.2,0
"2019-05-20 08:51:03+00",12.7,15.7,,63.8,-190,-525,0,1011.01,63.2,0
"2019-05-20 08:56:03+00",11.6,13.6,,63.7,-172,-474,4,1010.94,63.1,0
"2019-05-20 09:01:03+00",11.8,14.8,,63.6,-166,-477,-3,1010.88,63,0
"2019-05-20 09:06:03+00",11.6,13.6,,63.4,-164,-476,-6,1010.92,62.9,0
"2019-05-20 09:11:03+00",13.5,15.5,,63.4,-212,-533,-12,1010.87,62.8,0
"2019-05-20 09:16:03+00",14.1,15.1,,63.7,-253,-552,-6,1010.9,63,0
"2019-05-20 09:21:03+00",14.3,16.3,,63.9,-246,-561,-7,1010.91,63.2,0
"2019-05-20 09:26:03+00",15.1,17.1,,63.9,-251,-599,-8,1010.86,63.3,0
"2019-05-20 09:31:03+00",15.0,18.0,,63.9,-264,-589,-3,1010.87,63.3,0
"2019-05-20 09:36:03+00",14.0,17.0,,63.7,-249,-554,-7,1010.85,63.2,0
"2019-05-20 09:41:03+00",14.2,16.2,,63.6,-276,-549,0,1010.87,63.1,0
"2019-05-20 09:46:03+00",13.0,15.0,,63.8,-258,-508,11,1010.87,63.2,0
"2019-05-20 09:51:03+00",13.7,16.7,,63.9,-258,-534,-14,1010.9,63.3,0
"2019-05-20 09:56:03+00",12.5,15.5,,64,-222,-506,-8,1010.92,63.4,0
"2019-05-20 10:01:03+00",13.8,15.8,,64.2,-319,-520,-8,1010.84,63.6,0
"2019-05-20 10:06:03+00",13.8,15.8,,64.8,-309,-525,-1,1010.91,64,0
"2019-05-20 10:11:03+00",13.4,15.4,,64.9,-303,-508,0,1010.89,64.3,0
"2019-05-20 10:16:03+00",13.3,15.3,,65.1,-330,-499,-1,1010.93,64.4,0
"2019-05-20 10:21:03+00",13.5,14.5,,65.4,-350,-500,0,1010.98,64.7,0.1
"2019-05-20 10:26:03+00",13.9,15.9,,65.8,-353,-512,-1,1010.93,65.1,1.8
"2019-05-20 10:31:03+00",13.7,15.7,,66.2,-371,-498,15,1010.97,65.5,7.4
"2019-05-20 10:36:03+00",13.8,15.8,,66.5,-413,-475,11,1011.05,65.8,7.2
"2019-05-20 10:41:03+00",14.4,16.4,,66.7,-450,-465,4,1011.02,66,10.8
"2019-05-20 10:46:03+00",12.5,13.5,,66.7,-390,-395,17,1011.01,66.2,20.2
"2019-05-20 10:51:03+00",15.5,17.5,,67,-471,-508,11,1011.08,66.4,19.1
"2019-05-20 10:56:03+00",16.6,19.6,,67,-492,-573,-2,1011.07,66.6,23.3
"2019-05-20 11:01:03+00",17.4,19.4,,66.8,-519,-593,-1,1011.05,66.5,27.5
"2019-05-20 11:06:03+00",14.8,16.8,,66.8,-448,-510,22,1011.18,66.6,67
"2019-05-20 11:11:03+00",15.2,18.2,,67,-447,-536,29,1011.18,66.9,59.9
"2019-05-20 11:16:03+00",16.8,18.8,,67,-515,-570,15,1011.13,67,79.5
"2019-05-20 11:21:03+00",16.7,19.7,,67,-499,-573,8,1011.12,67.1,75.2
"2019-05-20 11:26:03+00",16.3,19.3,,67.2,-503,-532,5,1011.2,67.3,89.9
"2019-05-20 11:31:03+00",15.3,17.3,,67.3,-471,-504,6,1011.2,67.6,129.7
"2019-05-20 11:36:03+00",14.6,16.6,,67.5,-458,-463,-1,1011.25,68,144.1
"2019-05-20 11:41:03+00",14.0,16.0,,67.7,-449,-443,-3,1011.22,68.4,151.3
"2019-05-20 11:46:03+00",12.1,15.1,,67.9,-394,-373,25,1011.24,68.7,137.9
"2019-05-20 11:51:03+00",12.5,14.5,,68.1,-410,-375,16,1011.33,68.9,128.5
"2019-05-20 11:56:03+00",14.7,16.7,,68.4,-459,-486,-2,1011.26,68.9,76.9
"2019-05-20 12:01:03+00",12.9,14.9,,68.4,-397,-439,9,1011.29,68.8,75.3
"2019-05-20 12:06:03+00",13.8,15.8,,68.6,-441,-421,0,1011.35,68.9,101.1
"2019-05-20 12:11:03+00",12.2,14.2,,68.7,-394,-374,12,1011.43,69.1,153.7
"2019-05-20 12:16:03+00",13.7,15.7,,69,-431,-442,17,1011.45,69.5,146.2
"2019-05-20 12:21:03+00",13.1,15.1,,69,-394,-451,22,1011.44,69.8,174.1
"2019-05-20 12:26:03+00",13.4,16.4,,69.2,-393,-481,25,1011.33,70,201.1
"2019-05-20 12:31:03+00",14.6,16.6,,69.3,-427,-515,16,1011.35,70.1,150.6
"2019-05-20 12:36:03+00",15.1,18.1,,69.5,-441,-528,-4,1011.36,70.3,205
"2019-05-20 12:41:03+00",14.4,16.4,,69.8,-436,-504,30,1011.44,70.5,148.3
"2019-05-20 12:46:03+00",14.6,16.6,,69.9,-423,-508,5,1011.31,70.5,149
"2019-05-20 12:51:03+00",15.7,17.7,,70.3,-485,-520,-5,1011.39,70.9,208.1
"2019-05-20 12:56:03+00",14.0,17.0,,70.3,-446,-435,14,1011.4,71.2,186.7
"2019-05-20 13:01:03+00",12.6,15.6,,70.5,-401,-380,12,1011.42,71.3,193.8
"2019-05-20 13:06:03+00",13.4,15.4,,70.7,-418,-432,-4,1011.38,71.5,194.6
"2019-05-20 13:11:03+00",12.0,14.0,,70.6,-383,-374,7,1011.4,71.7,186.9
"2019-05-20 13:16:03+00",9.0,10.0,,70.7,-330,-218,7,1011.41,71.9,194.8
"2019-05-20 13:21:03+00",11.1,13.1,,71.6,-407,-288,21,1011.37,72.5,276.6
"2019-05-20 13:26:03+00",12.1,16.1,,72.5,-420,-329,29,1011.37,73.5,335.6
"2019-05-20 13:31:03+00",13.4,15.4,,73.3,-505,-321,14,1011.36,74.3,236.1
"2019-05-20 13:36:03+00",10.9,12.9,,73.5,-457,-225,29,1011.32,74.8,327.2
"2019-05-20 13:41:03+00",12.8,14.8,,74.4,-543,-118,45,1011.3,75.9,341.1
"2019-05-20 13:46:03+00",17.0,20.0,,75.9,-747,-35,29,1011.2,77,334.7
"2019-05-20 13:51:03+00",15.6,17.6,,76.9,-660,-169,36,1011.22,77.7,366.9
"2019-05-20 13:56:03+00",17.0,19.0,,76.9,-724,-121,26,1011.19,78.3,382.8
"2019-05-20 14:01:03+00",14.1,16.1,,76.8,-598,-128,33,1011.17,78.8,390.6
"2019-05-20 14:06:03+00",14.4,16.4,,77,-607,-135,38,1011.2,79.5,397.9
"2019-05-20 14:11:03+00",15.2,17.2,,77.2,-642,-171,16,1011.2,79.8,404.5
"2019-05-20 14:16:03+00",13.6,14.6,,77.3,-569,-151,7,1011.13,80.3,409
"2019-05-20 14:21:03+00",13.3,16.3,,77.6,-571,-122,35,1011.07,80.7,419.3
"2019-05-20 14:26:03+00",13.1,15.1,,77.7,-550,-96,24,1010.99,80.9,428.2
"2019-05-20 14:31:03+00",11.7,12.7,,77.9,-480,-255,16,1010.92,81.1,435.9
"2019-05-20 14:36:03+00",13.0,15.0,,77.8,-545,-177,14,1010.94,81.2,443.9
"2019-05-20 14:41:03+00",12.5,13.5,,78.7,-534,-215,36,1010.93,81.7,449.5
"2019-05-20 14:46:03+00",13.4,14.4,,77.8,-486,-329,10,1010.89,81.3,459.8
"2019-05-20 14:51:03+00",12.5,14.5,,77.8,-416,-360,12,1010.77,80.8,470.6
"2019-05-20 14:56:03+00",11.6,12.6,,77.7,-421,-291,15,1010.77,80.3,475.7
"2019-05-20 15:01:03+00",12.8,14.8,,78.5,-395,-416,7,1010.75,80.4,486.3
"2019-05-20 15:06:03+00",13.8,16.8,,78.1,-440,-422,-3,1010.66,80.3,495.2
"2019-05-20 15:11:03+00",13.3,16.3,,78.6,-391,-469,6,1010.6,80.3,501.7
"2019-05-20 15:16:03+00",14.1,17.1,,78.6,-416,-496,-1,1010.54,80.6,509.2
"2019-05-20 15:21:03+00",14.7,16.7,,78.4,-369,-547,-5,1010.54,80.4,516.1
"2019-05-20 15:26:03+00",14.6,17.6,,78.1,-385,-537,14,1010.58,80.1,512.9
"2019-05-20 15:31:03+00",10.4,14.4,,77.9,-175,-420,11,1010.58,79.8,526
"2019-05-20 15:36:03+00",12.4,14.4,,78,-219,-494,0,1010.59,79.9,522.9
"2019-05-20 15:41:03+00",13.5,16.5,,77.9,-178,-552,-7,1010.46,79.8,532.4
"2019-05-20 15:46:03+00",13.1,16.1,,77.7,-173,-535,14,1010.54,79.6,527
"2019-05-20 15:51:03+00",15.0,18.0,,77.3,-202,-616,-20,1010.52,79.1,527.9
"2019-05-20 15:56:03+00",12.3,16.3,,76.2,-129,-510,11,1010.49,78.4,529.8
"2019-05-20 16:01:03+00",13.1,17.1,,75.7,-155,-536,-1,1010.47,77.8,536.9
"2019-05-20 16:06:03+00",12.8,17.8,,75.4,-142,-523,11,1010.39,77.5,536.9
"2019-05-20 16:11:03+00",13.6,17.6,,75.4,-203,-557,8,1010.3,77.3,536.8
"2019-05-20 16:16:03+00",14.6,18.6,,75.9,-204,-602,0,1010.25,77.7,538.5
"2019-05-20 16:21:03+00",13.9,15.9,,76.2,-172,-571,-14,1010.21,78,539.5
"2019-05-20 16:26:03+00",15.7,18.7,,76.3,-207,-634,-7,1010.25,78.3,538.5
"2019-05-20 16:31:03+00",15.6,19.6,,76.6,-182,-651,-2,1010.16,78.6,538.6
"2019-05-20 16:36:03+00",14.5,18.5,,76.5,-206,-600,-5,1010.18,78.4,535.1
"2019-05-20 16:41:03+00",14.2,18.2,,76.4,-180,-577,10,1010.14,78.4,532
"2019-05-20 16:46:03+00",15.9,20.9,,76.9,-224,-657,0,1010.06,78.7,536.5
"2019-05-20 16:51:03+00",19.2,22.2,,77.2,-329,-762,-17,1009.96,79,470.3
"2019-05-20 16:56:03+00",16.6,19.6,,77.5,-316,-653,1,1009.93,79.2,535.6
"2019-05-20 17:01:03+00",19.3,22.3,,77.8,-363,-752,-17,1009.85,79.4,529.7
"2019-05-20 17:06:03+00",17.7,20.7,,77.9,-302,-702,-1,1009.79,79.6,527
"2019-05-20 17:11:03+00",15.5,20.5,,78.2,-275,-622,19,1009.75,79.8,524.5
"2019-05-20 17:16:03+00",15.3,20.3,,77.4,-158,-628,17,1009.65,79.3,516.3
"2019-05-20 17:21:03+00",15.2,19.2,,76.6,-203,-619,13,1009.57,78.6,513.2
"2019-05-20 17:26:03+00",15.3,20.3,,76.8,-181,-624,-2,1009.54,78.6,513.7
"2019-05-20 17:31:03+00",15.4,19.4,,77.3,-243,-625,13,1009.51,79.1,507.6
"2019-05-20 17:36:03+00",14.0,19.0,,77.9,-221,-571,19,1009.41,79.4,501.4
"2019-05-20 17:41:03+00",20.4,23.4,,77.6,-311,-824,-16,1009.33,79.3,504.8
"2019-05-20 17:46:03+00",19.7,23.7,,77.7,-325,-784,-18,1009.3,79.5,506.1
"2019-05-20 17:51:03+00",19.0,21.0,,78,-356,-742,-8,1009.21,79.7,496.7
"2019-05-20 17:56:03+00",16.6,22.6,,78.2,-258,-663,7,1009.1,79.7,489.5
"2019-05-20 18:01:03+00",14.7,18.7,,77.4,-188,-596,30,1009.01,79.4,480.1
"2019-05-20 18:06:03+00",15.3,19.3,,76.7,-164,-644,-1,1008.98,78.7,455.3
"2019-05-20 18:11:03+00",16.1,21.1,,76.6,-229,-660,-7,1008.83,78.4,442.5
"2019-05-20 18:16:03+00",17.1,20.1,,77,-275,-698,-9,1008.77,78.5,451.1
"2019-05-20 18:21:03+00",20.3,24.3,,77.3,-306,-819,-6,1008.79,78.8,460.9
"2019-05-20 18:26:03+00",15.1,20.1,,77.6,-175,-634,-9,1008.76,79.1,452.7
"2019-05-20 18:31:03+00",16.0,23.0,,76.9,-190,-656,0,1008.75,78.8,476.7
"2019-05-20 18:36:03+00",18.3,22.3,,76.3,-201,-778,-30,1008.68,78.4,467.3
"2019-05-20 18:41:03+00",15.0,19.0,,75.8,-183,-613,-1,1008.68,77.6,457
"2019-05-20 18:46:03+00",13.5,18.5,,76.4,-164,-555,27,1008.71,78.1,452.4
"2019-05-20 18:51:03+00",15.8,20.8,,76.6,-213,-653,20,1008.67,78.4,448.2
"2019-05-20 18:56:03+00",16.1,22.1,,76.9,-271,-642,29,1008.6,78.5,442.4
"2019-05-20 19:01:03+00",19.8,24.8,,76.9,-314,-791,-22,1008.56,78.4,432.4
"2019-05-20 19:06:03+00",19.7,25.7,,77.2,-334,-785,3,1008.45,78.7,430.9
"2019-05-20 19:11:03+00",22.1,24.1,,77.3,-392,-872,-10,1008.4,78.8,422.7
"2019-05-20 19:16:03+00",16.4,19.4,,77.6,-270,-670,-3,1008.4,78.9,416.7
"2019-05-20 19:21:03+00",20.8,23.8,,77,-358,-828,-21,1008.29,78.5,407
"2019-05-20 19:26:03+00",18.9,21.9,,77.2,-270,-766,5,1008.22,78.7,398.1
"2019-05-20 19:31:03+00",22.5,25.5,,76.7,-378,-892,-16,1008.1,78.4,390.3
"2019-05-20 19:36:03+00",20.9,26.9,,76.6,-313,-848,-7,1008.05,78.2,384.7
"2019-05-20 19:41:03+00",19.9,23.9,,76.3,-374,-784,17,1007.99,77.8,375.2
"2019-05-20 19:46:03+00",24.0,26.0,,75.6,-364,-968,-23,1007.91,77.3,363
"2019-05-20 19:51:03+00",20.8,25.8,,75.3,-342,-833,-6,1007.95,77,356.7
"2019-05-20 19:56:03+00",23.7,25.7,,75.1,-404,-938,-28,1007.77,76.6,349.6
"2019-05-20 20:01:03+00",21.0,23.0,,74.8,-367,-831,-1,1007.72,76.4,338.1
"2019-05-20 20:06:03+00",20.1,24.1,,74.9,-353,-806,16,1007.78,76.4,327.7
"2019-05-20 20:11:03+00",19.4,22.4,,74.9,-362,-767,16,1007.61,76.5,319
"2019-05-20 20:16:03+00",23.3,27.3,,74.6,-410,-918,-17,1007.55,76.2,311.8
"2019-05-20 20:21:03+00",21.4,25.4,,74.6,-406,-835,-20,1007.53,76.1,301.2
"2019-05-20 20:26:03+00",21.6,23.6,,74.4,-363,-860,-19,1007.45,76,297.1
"2019-05-20 20:31:03+00",18.2,23.2,,74.4,-275,-733,-9,1007.36,76,285.6
"2019-05-20 20:36:03+00",18.0,23.0,,74.2,-277,-745,8,1007.28,75.9,276.6
"2019-05-20 20:41:03+00",17.2,23.2,,73.9,-221,-704,19,1007.22,75.5,252.1
"2019-05-20 20:46:03+00",22.1,25.1,,73.3,-381,-865,-15,1007.22,75,44.8
"2019-05-20 20:51:03+00",21.0,25.0,,73.4,-382,-829,6,1007.2,75.1,33.1
"2019-05-20 20:56:03+00",21.1,25.1,,73,-409,-816,-7,1007.16,74.7,91.5
"2019-05-20 21:01:03+00",22.9,25.9,,73,-439,-889,-13,1007.2,74.6,235.5
"2019-05-20 21:06:03+00",19.0,22.0,,72.7,-417,-728,10,1007.18,74.3,224.9
"2019-05-20 21:11:03+00",19.0,25.0,,73,-336,-745,13,1007.08,74.3,219.8
"2019-05-20 21:16:03+00",20.5,23.5,,72.9,-330,-823,-25,1007,74.2,213.6
"2019-05-20 21:21:03+00",20.8,22.8,,72.7,-370,-820,-14,1007,74,197.4
"2019-05-20 21:26:03+00",20.3,24.3,,72.4,-456,-772,-12,1007.09,73.8,138.2
"2019-05-20 21:31:03+00",20.2,23.2,,72.8,-512,-747,-12,1007.01,73.9,195.3
"2019-05-20 21:36:03+00",16.1,18.1,,73,-318,-631,37,1006.91,74.2,177.2
"2019-05-20 21:41:03+00",17.4,20.4,,73.2,-431,-656,7,1007.08,74.4,174.2
"2019-05-20 21:46:03+00",16.7,18.7,,73.3,-445,-614,10,1007.07,74.3,164.2
"2019-05-20 21:51:03+00",18.5,21.5,,73.4,-385,-703,-7,1006.99,74.5,162
"2019-05-20 21:56:03+00",15.6,17.6,,73.4,-452,-555,6,1007.11,74.7,153.1
"2019-05-20 22:01:03+00",14.9,16.9,,73.9,-417,-534,4,1007.09,75.1,130.1
"2019-05-20 22:06:03+00",13.9,15.9,,73.2,-375,-507,-6,1007.04,74.6,54
"2019-05-20 22:11:03+00",18.7,22.7,,73,-470,-698,2,1007.1,73.7,2.2
"2019-05-20 22:16:03+00",15.5,18.5,,72.9,-405,-575,21,1007.14,73.3,0.7
"2019-05-20 22:21:03+00",18.3,21.3,,72.6,-539,-644,23,1007.21,72.9,0.6
"2019-05-20 22:26:03+00",18.6,22.6,,72.5,-518,-667,4,1007.12,72.7,21.6
"2019-05-20 22:31:03+00",15.6,18.6,,72.4,-391,-580,3,1007.1,72.6,20.8
"2019-05-20 22:36:03+00",16.2,20.2,,72.2,-442,-589,0,1007.02,72.5,19.4
"2019-05-20 22:41:03+00",17.0,19.0,,72.2,-431,-628,2,1007.11,72.6,27.1
"2019-05-20 22:46:03+00",17.9,20.9,,72.1,-516,-623,1,1007.17,72.5,18.3
"2019-05-20 22:51:03+00",17.2,20.2,,71.9,-524,-586,14,1007.26,72.3,10
"2019-05-20 22:56:03+00",18.2,22.2,,71.6,-531,-634,9,1007.22,72,1.2
"2019-05-20 23:01:03+00",17.5,19.5,,71.4,-494,-619,1,1007.24,71.6,0.7
"2019-05-20 23:06:03+00",16.3,18.3,,71.2,-432,-601,6,1006.92,71.4,3.3
"2019-05-20 23:11:03+00",17.8,20.8,,71,-437,-666,0,1006.84,71.1,0
"2019-05-20 23:16:03+00",18.1,21.1,,71.1,-426,-682,0,1006.73,71,0
"2019-05-20 23:21:03+00",13.6,15.6,,71.1,-357,-501,20,1006.99,70.9,0
"2019-05-20 23:26:03+00",11.6,13.6,,71.1,-289,-433,2,1007.02,70.9,0
"2019-05-20 23:31:03+00",15.3,19.3,,70.8,-452,-531,-5,1006.97,70.7,0
"2019-05-20 23:36:03+00",16.1,18.1,,70.5,-446,-581,3,1007.01,70.5,0
"2019-05-20 23:41:03+00",17.6,18.6,,70.2,-550,-578,23,1007.22,70.2,0
"2019-05-20 23:46:03+00",21.0,24.0,,69.7,-719,-579,31,1007.46,69.5,0
"2019-05-20 23:51:03+00",12.4,21.4,,68.6,-255,136,44,1007.51,69,0
"2019-05-20 23:56:03+00",21.0,24.0,,68.8,-237,-471,204,1007.25,68,0
